EHI
6 8 9 6 2 0 0 0 0 1 0 1 2 1 1 2 3 1 1 2 2 1 0 0 0 0 0 1 2 2 1 0 0 0 1 3 3 1 0 1 0 0 0
7 9 10 7 3 1 0 0 1 1 1 0 1 1 1 2 3 2 1 1 1 0 0 0 0 0 0 1 2 2 1 0 0 0 0 1 1 1 1 1 1 0 1
8 9 10 8 5 3 1 1 2 2 1 0 0 1 1 1 2 1 0 0 0 0 0 0 0 0 0 0 1 1 0 0 1 0 0 0 1 2 2 1 1 1 1
6 7 7 8 7 5 3 3 3 3 2 0 0 0 0 0 1 0 0 0 0 0 0 0 0 0 0 0 0 0 0 0 0 0 0 0 1 3 3 2 1 0 1
6 6 6 7 7 6 5 4 3 3 1 0 0 0 0 0 1 0 0 0 0 0 0 0 0 0 0 0 0 0 0 0 0 0 0 0 2 6 6 4 2 0 0
8 6 5 6 6 6 6 4 3 2 1 0 0 0 0 0 0 0 0 0 0 0 0 0 0 0 0 0 0 0 0 1 1 1 1 1 5 10 10 6 3 1 0
11 8 6 6 7 6 6 5 4 3 1 1 1 0 0 0 0 0 0 0 1 0 0 0 1 1 0 0 1 1 2 2 2 2 2 4 9 13 12 8 4 1 0
11 9 7 7 7 6 6 6 5 3 3 2 1 0 0 0 0 0 0 0 0 0 1 1 2 3 2 2 3 4 5 4 2 1 3 6 11 15 14 10 6 3 1
9 8 7 7 8 6 6 5 4 3 3 2 1 0 0 0 1 2 2 2 2 2 2 3 4 5 6 6 7 9 9 7 3 1 1 5 10 15 15 12 8 5 4
8 8 7 6 7 8 7 6 5 3 3 2 1 1 1 2 4 5 6 8 8 6 5 5 6 8 9 10 11 12 12 8 4 2 1 4 11 15 16 13 10 8 7
10 9 7 5 6 7 7 7 7 5 3 3 4 6 5 5 6 6 8 13 14 11 9 8 9 10 10 10 12 14 12 8 5 4 6 11 14 15 15 14 13 11 10
9 9 8 6 5 5 6 7 7 7 5 4 6 9 8 7 5 4 8 15 18 15 12 11 12 11 8 7 10 12 9 7 6 5 11 18 18 15 15 15 15 14 12
6 7 7 6 5 5 5 5 7 8 6 6 8 9 7 5 3 3 7 15 19 15 11 11 11 9 6 5 7 8 7 5 4 6 14 21 21 18 18 18 18 16 14
5 6 6 7 8 8 6 5 6 7 5 5 8 9 6 3 2 2 6 12 14 12 10 10 10 8 7 5 5 6 5 4 3 7 13 20 24 25 24 23 23 19 15
6 7 8 11 15 14 9 7 6 6 4 4 7 9 8 5 4 4 7 10 9 9 9 10 10 10 8 6 4 4 5 5 5 8 13 21 29 31 30 29 28 24 19
8 10 13 16 20 19 13 8 7 7 6 5 7 11 11 8 7 7 8 9 9 9 11 13 13 11 9 6 5 5 7 7 7 10 14 21 29 34 35 34 34 31 27
15 15 16 16 20 21 15 10 9 7 7 7 10 13 15 13 12 12 11 10 9 10 14 17 15 12 10 7 7 9 10 11 10 12 14 19 24 30 35 38 38 37 34
25 24 18 13 18 23 19 15 12 10 9 10 12 15 17 16 16 17 15 11 9 10 14 17 17 16 13 10 9 11 14 16 15 13 15 18 20 24 30 36 38 37 36
35 32 22 16 20 24 23 18 15 14 15 15 15 15 15 15 15 17 15 11 9 9 11 13 16 19 19 14 10 11 14 18 19 16 15 18 22 23 25 30 34 34 33
42 39 31 25 24 25 24 18 15 17 20 20 18 17 16 15 14 14 12 10 9 8 10 12 14 18 21 17 11 10 11 15 19 18 15 17 21 22 21 25 28 28 27
47 47 42 34 30 28 26 20 17 18 20 21 20 20 21 19 16 14 12 11 11 11 12 14 15 17 19 18 14 10 9 12 16 18 17 18 19 17 18 22 25 25 23
51 50 48 43 36 29 25 21 19 18 18 19 21 24 24 21 18 15 13 13 13 14 14 15 16 16 17 18 17 12 8 9 11 12 13 15 15 13 14 19 26 28 26
52 50 51 52 45 32 25 21 20 21 20 20 25 30 29 24 18 15 15 15 14 15 14 14 14 15 15 15 14 10 7 6 6 6 7 9 10 10 10 14 23 30 29
47 49 55 60 54 42 32 25 23 24 24 23 29 35 35 28 19 14 15 16 15 15 14 13 14 15 15 12 9 7 7 6 6 5 3 4 6 8 9 11 17 25 27
39 44 57 65 61 53 43 32 29 28 26 26 29 32 33 29 21 16 15 16 15 12 11 12 12 14 14 11 7 7 8 9 8 6 4 3 3 6 9 12 16 20 23
34 40 54 65 64 57 47 37 33 30 27 28 28 27 29 27 22 18 17 17 14 10 9 10 10 11 13 11 9 9 9 9 8 8 6 3 2 4 8 13 17 19 21
Wind_Speed
10 11 12 13 12 12 12 12 12 12 13 13 13 13 13 13 13 12 12 12 11 10 10 9 8 7 7 7 7 8 8 8 8 8 9 10 9 9 8 7 8 8 11
13 12 12 12 12 12 12 11 11 11 13 14 13 12 12 12 11 11 11 11 10 9 9 8 7 7 7 7 7 7 6 6 6 7 8 8 8 8 7 7 8 7 10
13 12 12 12 12 12 11 11 11 12 13 13 13 12 12 11 11 10 10 10 9 9 8 7 7 7 6 6 5 5 4 4 4 5 6 5 6 8 8 8 10 10 9
14 12 12 13 12 12 12 12 12 13 13 13 12 11 11 10 10 10 9 9 8 8 7 7 6 6 6 5 4 3 3 2 3 4 3 4 6 9 8 8 9 9 8
14 13 12 13 12 12 12 11 12 12 12 12 12 11 10 10 10 9 9 8 7 7 6 6 5 5 5 4 3 2 2 3 3 5 1 4 6 9 9 9 9 8 8
14 14 13 12 12 11 11 11 11 12 11 11 11 10 10 9 9 8 8 7 7 6 5 5 4 4 4 3 2 2 3 4 5 4 2 5 7 9 9 9 8 8 7
14 14 13 12 12 11 11 11 11 11 11 11 10 9 8 8 8 7 7 6 5 5 5 5 4 3 3 3 3 3 4 6 6 3 2 6 7 10 9 9 8 8 7
13 14 13 13 11 11 11 11 11 10 10 10 9 8 8 7 7 7 6 6 5 5 5 4 4 4 3 4 4 5 5 7 4 2 3 6 10 11 10 9 8 8 7
13 12 12 12 11 11 11 11 10 10 9 9 8 7 7 7 6 6 6 6 5 5 5 5 5 4 4 5 5 6 7 7 6 2 3 6 10 10 10 9 8 7 7
10 10 10 11 11 10 9 10 10 10 9 8 8 7 7 6 6 7 7 7 6 6 6 6 6 6 6 6 7 8 8 6 6 2 3 7 10 10 10 9 8 7 7
8 7 8 9 9 10 10 11 10 10 8 8 7 8 6 5 5 6 6 8 8 7 7 7 7 7 7 8 9 9 7 5 4 2 4 10 11 10 10 9 8 8 8
8 8 6 7 8 7 7 8 6 6 6 5 4 5 4 3 3 5 7 8 8 8 8 9 9 8 8 5 8 9 5 6 3 3 5 13 11 10 9 9 8 8 8
9 7 7 6 6 5 4 4 3 3 4 4 4 3 3 2 3 3 4 5 5 7 5 6 7 6 6 4 3 4 4 3 1 2 7 12 11 10 9 9 8 8 8
8 8 7 6 5 4 3 2 3 3 3 3 3 3 2 1 1 2 2 3 3 3 3 3 3 4 3 3 3 3 3 2 1 3 6 11 11 10 10 9 9 9 9
8 8 7 6 5 4 2 1 3 2 3 3 3 2 1 1 1 1 1 1 2 2 2 2 2 2 2 3 4 3 2 2 1 2 5 11 12 11 10 10 9 9 9
7 7 7 7 6 4 3 2 1 2 2 2 2 2 1 1 1 0 1 1 1 1 1 2 3 2 2 2 3 3 3 2 2 3 4 7 11 11 11 11 10 10 10
7 6 7 7 7 5 4 3 3 2 3 2 3 3 1 1 1 0 1 1 1 2 2 2 2 2 2 2 2 4 3 2 2 3 4 4 6 10 12 12 11 10 10
7 6 6 6 8 6 4 3 2 2 2 1 2 3 2 2 2 1 1 1 1 1 2 2 1 1 1 1 1 3 2 2 3 3 3 4 4 5 9 12 12 11 11
7 6 5 4 6 6 5 3 2 2 1 1 1 2 2 1 1 1 1 1 2 1 1 1 1 1 1 1 2 2 3 2 2 3 3 4 3 4 5 9 12 12 12
8 7 6 5 5 5 4 3 2 2 2 2 2 2 3 2 1 1 1 1 1 1 1 1 0 0 1 2 2 2 2 2 2 2 3 3 3 4 4 6 6 8 11
9 8 7 7 6 4 3 3 3 2 2 2 3 3 3 2 1 1 1 1 1 0 0 1 1 1 1 1 1 2 3 3 3 3 2 2 3 3 4 5 5 4 5
10 9 7 6 7 6 4 3 2 2 2 2 1 2 2 2 1 2 1 1 0 0 0 1 1 1 2 1 1 1 1 2 2 2 2 3 2 2 3 5 5 5 4
10 10 8 7 6 6 5 3 2 2 1 1 1 2 2 2 1 1 1 1 1 1 1 2 2 2 2 2 1 1 1 1 2 2 1 1 1 1 2 2 4 4 5
11 10 8 7 6 6 5 4 4 3 2 2 2 2 2 2 1 1 1 1 1 1 0 2 0 2 2 2 1 1 2 1 1 1 2 1 1 2 2 1 2 3 4
11 10 9 7 6 6 5 4 4 3 2 1 2 2 2 2 1 1 1 0 1 1 1 1 1 2 1 1 1 1 2 1 2 2 2 2 1 1 1 2 1 1 3
10 10 10 9 7 6 6 5 4 3 2 2 2 2 2 2 2 2 1 1 1 1 1 1 1 1 1 2 2 2 1 1 1 0 1 2 2 2 1 1 1 1 2
Wind_Direction
102 102 97 95 98 98 104 104 106 111 111 109 107 107 107 105 105 105 105 103 103 103 104 102 104 101 97 94 94 94 94 98 101 100 101 101 100 97 100 109 111 105 108
110 106 101 97 97 98 104 105 105 110 116 114 112 112 111 108 106 105 104 105 106 106 104 102 103 103 100 99 100 103 106 114 119 121 118 111 109 104 99 101 95 107 112
110 110 107 99 99 99 101 103 105 109 115 117 118 117 114 113 111 109 106 107 109 109 108 107 108 105 104 103 105 111 118 130 147 154 151 131 123 117 110 105 107 117 118
112 110 107 106 101 100 101 102 104 109 114 116 119 119 119 117 115 114 113 113 113 114 115 114 114 113 110 109 114 121 138 169 204 216 194 144 127 123 121 117 119 123 126
110 108 107 109 104 103 103 102 106 109 113 116 118 120 122 121 121 123 123 123 122 122 123 125 125 125 123 128 135 150 205 239 256 261 176 119 108 130 132 130 129 131 132
117 112 111 112 110 107 106 105 108 111 113 118 120 120 122 125 126 129 130 129 130 128 129 133 132 134 138 147 168 203 243 261 271 252 170 129 122 138 138 138 140 141 140
116 115 119 117 114 110 108 108 111 115 116 120 123 123 126 131 133 134 134 138 140 138 138 143 147 156 167 178 202 231 253 268 260 249 155 121 129 141 143 145 145 146 147
117 119 123 124 120 117 115 114 115 118 119 123 127 130 135 139 143 145 149 154 157 158 162 166 169 178 192 204 224 244 259 274 262 225 134 120 136 145 147 149 152 154 155
122 125 133 135 132 128 124 122 123 125 127 129 131 138 149 153 159 163 166 170 172 174 179 182 186 194 207 220 233 247 259 270 279 234 128 122 144 150 151 155 158 162 164
122 128 139 141 141 144 139 136 136 137 140 145 147 151 155 164 175 182 182 184 186 189 192 198 205 210 216 226 236 246 255 268 261 220 126 136 154 155 156 159 164 170 172
123 132 140 144 150 147 144 145 151 151 154 159 161 169 173 187 180 187 183 181 192 199 203 208 215 220 223 228 236 243 251 245 231 164 131 150 161 161 163 166 171 174 178
139 138 140 145 150 142 136 142 158 157 156 176 161 172 191 196 185 166 170 187 198 208 216 219 224 228 232 226 226 230 239 237 217 149 144 155 162 166 169 173 177 180 183
144 143 141 141 128 119 123 141 152 147 151 165 155 177 182 180 160 155 169 188 200 208 222 212 218 226 226 222 216 208 224 236 185 147 153 160 164 171 175 180 185 188 190
144 147 145 134 115 109 115 138 148 147 149 154 157 183 163 162 158 168 173 180 195 198 206 209 219 228 235 235 233 222 224 228 172 140 156 165 167 175 181 184 188 192 194
150 148 137 130 120 113 111 170 140 143 139 144 146 164 178 155 137 161 126 212 214 182 195 211 219 239 259 251 251 230 223 244 199 159 150 170 175 180 184 186 191 195 197
148 144 138 141 138 145 165 179 141 141 143 148 145 156 188 122 112 41 185 247 210 209 201 202 208 217 233 253 273 271 235 225 201 166 157 174 182 184 187 192 196 200 201
148 142 143 158 152 163 181 189 175 179 166 162 147 150 179 136 151 222 241 243 221 210 198 211 216 217 229 237 255 266 250 225 199 196 171 176 183 192 195 197 200 203 205
152 149 167 168 152 162 183 203 198 182 149 144 144 148 169 172 207 245 245 256 241 231 202 196 198 213 251 244 244 260 258 219 206 204 196 191 184 190 197 201 204 205 206
153 154 166 157 150 162 178 194 214 165 161 173 172 149 165 209 218 256 251 266 261 248 232 237 130 164 251 267 256 238 241 224 212 218 197 190 187 175 178 193 202 205 208
157 157 164 165 163 168 177 190 219 195 186 196 186 164 163 194 205 254 231 258 286 327 349 354 39 235 240 255 279 294 279 252 212 206 208 190 180 186 180 173 187 205 209
163 164 169 172 164 176 187 187 197 199 205 195 189 169 167 193 199 230 294 315 304 278 272 279 259 249 238 223 240 289 283 263 224 197 201 190 176 183 178 167 178 181 191
165 165 169 174 170 184 185 186 197 201 210 199 185 149 170 180 210 214 222 275 272 227 224 277 272 259 261 228 197 265 298 306 283 226 190 194 195 191 177 177 179 177 180
168 171 176 175 170 183 182 185 202 186 220 214 173 166 170 168 205 254 186 278 297 242 203 254 263 261 253 262 210 206 231 269 297 282 233 188 183 194 212 190 179 175 179
174 172 164 164 169 178 187 191 197 198 209 208 187 171 162 161 193 208 200 264 298 312 292 273 188 275 269 271 257 219 222 207 241 302 305 285 196 217 224 214 204 172 175
175 173 166 163 172 176 184 193 199 208 207 193 172 163 172 166 190 176 187 262 301 330 338 344 5 325 304 296 294 278 269 235 224 213 269 290 286 243 211 178 193 170 180
175 174 169 163 171 177 185 194 193 207 206 190 184 172 183 180 175 167 174 191 242 304 326 341 312 295 293 310 313 302 296 297 288 249 258 268 275 276 248 173 174 179 169